Location: Holyhead Bay
(53.3667°N, 4.6667°W)
Time: 19:25:15
(UTC+00:00)

Cosmos 1980 Rocket - Pass Details

Date: 24 November 2020
Orbit: 829 x 850 km, 71.0° (Epoch: 16 January)

Event Time Altitude Azimuth Distance (km) Brightness Sun altitude
Rises 17:40:29 0° 285° (WNW) 3,376 6.4 -12.9°
Reaches altitude 10° 17:44:04 10° 308° (NW) 2,444 5.1 -13.4°
Maximum altitude 17:47:14 15° 343° (NNW) 2,105 4.3 -13.9°
Drops below altitude 10° 17:50:25 10° 18° (NNE) 2,449 4.3 -14.3°
Enters shadow 17:51:21 - 26° (NNE) 2,657 4.4 -14.5°
